Year,Month,Day,Hour,Minute,Value (Times are PST for temperature in C)
2011,07,29,00,00,14.40
2011,07,29,00,01,14.40
2011,07,29,00,02,14.40
2011,07,29,00,03,14.40
2011,07,29,00,04,14.40
2011,07,29,00,05,14.40
2011,07,29,00,06,14.40
2011,07,29,00,07,14.40
2011,07,29,00,08,14.40
2011,07,29,00,09,14.40
2011,07,29,00,10,14.30
2011,07,29,00,11,14.40
2011,07,29,00,12,14.30
2011,07,29,00,13,14.30
2011,07,29,00,14,14.30
2011,07,29,00,15,14.30
2011,07,29,00,16,14.30
2011,07,29,00,17,14.30
2011,07,29,00,18,14.30
2011,07,29,00,19,14.30
2011,07,29,00,20,14.30
2011,07,29,00,21,14.30
2011,07,29,00,22,14.30
2011,07,29,00,23,14.40
2011,07,29,00,24,14.40
2011,07,29,00,25,14.40
2011,07,29,00,26,14.40
2011,07,29,00,27,14.40
2011,07,29,00,28,14.40
2011,07,29,00,29,14.40
2011,07,29,00,30,14.40
2011,07,29,00,31,14.40
2011,07,29,00,32,14.40
2011,07,29,00,33,14.40
2011,07,29,00,34,14.40
2011,07,29,00,35,14.40
2011,07,29,00,36,14.40
2011,07,29,00,37,14.40
2011,07,29,00,38,14.40
2011,07,29,00,39,14.40
2011,07,29,00,40,14.40
2011,07,29,00,41,14.30
2011,07,29,00,42,14.30
2011,07,29,00,43,14.30
2011,07,29,00,44,14.30
2011,07,29,00,45,14.30
2011,07,29,00,46,14.30
2011,07,29,00,47,14.30
2011,07,29,00,48,14.30
2011,07,29,00,49,14.30
2011,07,29,00,50,14.30
2011,07,29,00,51,14.30
2011,07,29,00,52,14.30
2011,07,29,00,53,14.30
2011,07,29,00,54,14.30
2011,07,29,00,55,14.30
2011,07,29,00,56,14.30
2011,07,29,00,57,14.30
2011,07,29,00,58,14.30
2011,07,29,00,59,14.30
2011,07,29,01,00,14.30
2011,07,29,01,01,14.30
2011,07,29,01,02,14.20
2011,07,29,01,03,14.20
2011,07,29,01,04,14.20
2011,07,29,01,05,14.20
2011,07,29,01,06,14.20
2011,07,29,01,07,14.20
2011,07,29,01,08,14.20
2011,07,29,01,09,14.20
2011,07,29,01,10,14.20
2011,07,29,01,11,14.20
2011,07,29,01,12,14.20
2011,07,29,01,13,14.20
2011,07,29,01,14,14.20
2011,07,29,01,15,14.20
2011,07,29,01,16,14.20
2011,07,29,01,17,14.20
2011,07,29,01,18,14.20
2011,07,29,01,19,14.20
2011,07,29,01,20,14.10
2011,07,29,01,21,14.10
2011,07,29,01,22,14.10
2011,07,29,01,23,14.10
2011,07,29,01,24,14.10
2011,07,29,01,25,14.10
2011,07,29,01,26,14.10
2011,07,29,01,27,14.10
2011,07,29,01,28,14.10
2011,07,29,01,29,14.10
2011,07,29,01,30,14.10
2011,07,29,01,31,14.10
2011,07,29,01,32,14.10
2011,07,29,01,33,14.10
2011,07,29,01,34,14.10
2011,07,29,01,35,14.10
2011,07,29,01,36,14.10
2011,07,29,01,37,14.10
2011,07,29,01,38,14.10
2011,07,29,01,39,14.10
2011,07,29,01,40,14.10
2011,07,29,01,41,14.10
2011,07,29,01,42,14.10
2011,07,29,01,43,14.10
2011,07,29,01,44,14.00
2011,07,29,01,45,14.00
2011,07,29,01,46,14.00
2011,07,29,01,47,14.10
2011,07,29,01,48,14.10
2011,07,29,01,49,14.10
2011,07,29,01,50,14.10
2011,07,29,01,51,14.10
2011,07,29,01,52,14.10
2011,07,29,01,53,14.10
2011,07,29,01,54,14.10
2011,07,29,01,55,14.10
2011,07,29,01,56,14.10
2011,07,29,01,57,14.00
2011,07,29,01,58,14.00
2011,07,29,01,59,14.00
2011,07,29,02,00,14.00
2011,07,29,02,01,14.00
2011,07,29,02,02,14.00
2011,07,29,02,03,13.90
2011,07,29,02,04,13.90
2011,07,29,02,05,13.90
2011,07,29,02,06,13.90
2011,07,29,02,07,13.90
2011,07,29,02,08,13.90
2011,07,29,02,09,13.90
2011,07,29,02,10,13.90
2011,07,29,02,11,13.90
2011,07,29,02,12,13.90
2011,07,29,02,13,13.90
2011,07,29,02,14,13.90
2011,07,29,02,15,13.90
2011,07,29,02,16,13.90
2011,07,29,02,17,13.90
2011,07,29,02,18,13.90
2011,07,29,02,19,13.90
2011,07,29,02,20,13.90
2011,07,29,02,21,13.90
2011,07,29,02,22,13.80
2011,07,29,02,23,13.80
2011,07,29,02,24,13.90
2011,07,29,02,25,13.80
2011,07,29,02,26,13.90
2011,07,29,02,27,13.90
2011,07,29,02,28,13.90
2011,07,29,02,29,13.90
2011,07,29,02,30,13.90
2011,07,29,02,31,13.80
2011,07,29,02,32,13.80
2011,07,29,02,33,13.80
2011,07,29,02,34,13.80
2011,07,29,02,35,13.80
2011,07,29,02,36,13.80
2011,07,29,02,37,13.80
2011,07,29,02,38,13.80
2011,07,29,02,39,13.80
2011,07,29,02,40,13.80
2011,07,29,02,41,13.80
2011,07,29,02,42,13.80
2011,07,29,02,43,13.80
2011,07,29,02,44,13.80
2011,07,29,02,45,13.80
2011,07,29,02,46,13.80
2011,07,29,02,47,13.80
2011,07,29,02,48,13.80
2011,07,29,02,49,13.80
2011,07,29,02,50,13.80
2011,07,29,02,51,13.80
2011,07,29,02,52,13.80
2011,07,29,02,53,13.80
2011,07,29,02,54,13.80
2011,07,29,02,55,13.80
2011,07,29,02,56,13.90
2011,07,29,02,57,13.90
2011,07,29,02,58,13.90
2011,07,29,02,59,13.90
2011,07,29,03,00,13.90
2011,07,29,03,01,13.90
2011,07,29,03,02,13.90
2011,07,29,03,03,13.90
2011,07,29,03,04,13.90
2011,07,29,03,05,13.90
2011,07,29,03,06,13.90
2011,07,29,03,07,13.90
2011,07,29,03,08,13.90
2011,07,29,03,09,14.00
2011,07,29,03,10,14.00
2011,07,29,03,11,14.00
2011,07,29,03,12,14.00
2011,07,29,03,13,14.00
2011,07,29,03,14,14.00
2011,07,29,03,15,14.10
2011,07,29,03,16,14.10
2011,07,29,03,17,14.10
2011,07,29,03,18,14.10
2011,07,29,03,19,14.10
2011,07,29,03,20,14.10
2011,07,29,03,21,14.10
2011,07,29,03,22,14.10
2011,07,29,03,23,14.10
2011,07,29,03,24,14.10
2011,07,29,03,25,14.10
2011,07,29,03,26,14.10
2011,07,29,03,27,14.10
2011,07,29,03,28,14.10
2011,07,29,03,29,14.10
2011,07,29,03,30,14.10
2011,07,29,03,31,14.20
2011,07,29,03,32,14.20
2011,07,29,03,33,14.20
2011,07,29,03,34,14.20
2011,07,29,03,35,14.20
2011,07,29,03,36,14.20
2011,07,29,03,37,14.20
2011,07,29,03,38,14.20
2011,07,29,03,39,14.20
2011,07,29,03,40,14.20
2011,07,29,03,41,14.20
2011,07,29,03,42,14.20
2011,07,29,03,43,14.20
2011,07,29,03,44,14.20
2011,07,29,03,45,14.20
2011,07,29,03,46,14.20
2011,07,29,03,47,14.20
2011,07,29,03,48,14.20
2011,07,29,03,49,14.20
2011,07,29,03,50,14.20
2011,07,29,03,51,14.20
2011,07,29,03,52,14.20
2011,07,29,03,53,14.20
2011,07,29,03,54,14.20
2011,07,29,03,55,14.20
2011,07,29,03,56,14.20
2011,07,29,03,57,14.20
2011,07,29,03,58,14.20
2011,07,29,03,59,14.20
2011,07,29,04,00,14.20
2011,07,29,04,01,14.20
2011,07,29,04,02,14.30
2011,07,29,04,03,14.30
2011,07,29,04,04,14.30
2011,07,29,04,05,14.30
2011,07,29,04,06,14.30
2011,07,29,04,07,14.30
2011,07,29,04,08,14.30
2011,07,29,04,09,14.30
2011,07,29,04,10,14.30
2011,07,29,04,11,14.30
2011,07,29,04,12,14.30
2011,07,29,04,13,14.30
2011,07,29,04,14,14.30
2011,07,29,04,15,14.30
2011,07,29,04,16,14.30
2011,07,29,04,17,14.30
2011,07,29,04,18,14.30
2011,07,29,04,19,14.30
2011,07,29,04,20,14.30
2011,07,29,04,21,14.30
2011,07,29,04,22,14.30
2011,07,29,04,23,14.30
2011,07,29,04,24,14.30
2011,07,29,04,25,14.30
2011,07,29,04,26,14.30
2011,07,29,04,27,14.30
2011,07,29,04,28,14.30
2011,07,29,04,29,14.30
2011,07,29,04,30,14.30
2011,07,29,04,31,14.30
2011,07,29,04,32,14.30
2011,07,29,04,33,14.30
2011,07,29,04,34,14.30
2011,07,29,04,35,14.30
2011,07,29,04,36,14.30
2011,07,29,04,37,14.30
2011,07,29,04,38,14.30
2011,07,29,04,39,14.30
2011,07,29,04,40,14.30
2011,07,29,04,41,14.30
2011,07,29,04,42,14.30
2011,07,29,04,43,14.30
2011,07,29,04,44,14.30
2011,07,29,04,45,14.30
2011,07,29,04,46,14.30
2011,07,29,04,47,14.30
2011,07,29,04,48,14.30
2011,07,29,04,49,14.30
2011,07,29,04,50,14.30
2011,07,29,04,51,14.30
2011,07,29,04,52,14.30
2011,07,29,04,53,14.30
2011,07,29,04,54,14.30
2011,07,29,04,55,14.30
2011,07,29,04,56,14.30
2011,07,29,04,57,14.30
2011,07,29,04,58,14.30
2011,07,29,04,59,14.30
2011,07,29,05,00,14.30
2011,07,29,05,01,14.30
2011,07,29,05,02,14.30
2011,07,29,05,03,14.30
2011,07,29,05,04,14.30
2011,07,29,05,05,14.30
2011,07,29,05,06,14.30
2011,07,29,05,07,14.20
2011,07,29,05,08,14.20
2011,07,29,05,09,14.20
2011,07,29,05,10,14.20
2011,07,29,05,11,14.20
2011,07,29,05,12,14.20
2011,07,29,05,13,14.20
2011,07,29,05,14,14.20
2011,07,29,05,15,14.20
2011,07,29,05,16,14.20
2011,07,29,05,17,14.20
2011,07,29,05,18,14.20
2011,07,29,05,19,14.20
2011,07,29,05,20,14.20
2011,07,29,05,21,14.20
2011,07,29,05,22,14.20
2011,07,29,05,23,14.20
2011,07,29,05,24,14.20
2011,07,29,05,25,14.20
2011,07,29,05,26,14.20
2011,07,29,05,27,14.20
2011,07,29,05,28,14.20
2011,07,29,05,29,14.20
2011,07,29,05,30,14.20
2011,07,29,05,31,14.20
2011,07,29,05,32,14.20
2011,07,29,05,33,14.20
2011,07,29,05,34,14.20
2011,07,29,05,35,14.20
2011,07,29,05,36,14.20
2011,07,29,05,37,14.20
2011,07,29,05,38,14.20
2011,07,29,05,39,14.20
2011,07,29,05,40,14.20
2011,07,29,05,41,14.20
2011,07,29,05,42,14.20
2011,07,29,05,43,14.20
2011,07,29,05,44,14.20
2011,07,29,05,45,14.20
2011,07,29,05,46,14.20
2011,07,29,05,47,14.20
2011,07,29,05,48,14.20
2011,07,29,05,49,14.20
2011,07,29,05,50,14.20
2011,07,29,05,51,14.20
2011,07,29,05,52,14.20
2011,07,29,05,53,14.20
2011,07,29,05,54,14.20
2011,07,29,05,55,14.20
2011,07,29,05,56,14.20
2011,07,29,05,57,14.20
2011,07,29,05,58,14.20
2011,07,29,05,59,14.20
2011,07,29,06,00,14.20
2011,07,29,06,01,14.20
2011,07,29,06,02,14.20
2011,07,29,06,03,14.20
2011,07,29,06,04,14.10
2011,07,29,06,05,14.10
2011,07,29,06,06,14.10
2011,07,29,06,07,14.10
2011,07,29,06,08,14.10
2011,07,29,06,09,14.10
2011,07,29,06,10,14.10
2011,07,29,06,11,14.10
2011,07,29,06,12,14.10
2011,07,29,06,13,14.00
2011,07,29,06,14,14.00
2011,07,29,06,15,14.00
2011,07,29,06,16,13.90
2011,07,29,06,17,13.90
2011,07,29,06,18,13.90
2011,07,29,06,19,13.90
2011,07,29,06,20,13.90
2011,07,29,06,21,13.90
2011,07,29,06,22,13.90
2011,07,29,06,23,13.90
2011,07,29,06,24,13.90
2011,07,29,06,25,13.90
2011,07,29,06,26,13.90
2011,07,29,06,27,13.90
2011,07,29,06,28,13.90
2011,07,29,06,29,13.90
2011,07,29,06,30,13.90
2011,07,29,06,31,13.90
2011,07,29,06,32,13.90
2011,07,29,06,33,13.90
2011,07,29,06,34,13.90
2011,07,29,06,35,13.90
2011,07,29,06,36,13.90
2011,07,29,06,37,14.00
2011,07,29,06,38,14.00
2011,07,29,06,39,14.00
2011,07,29,06,40,14.00
2011,07,29,06,41,14.00
2011,07,29,06,42,14.10
2011,07,29,06,43,14.10
2011,07,29,06,44,14.10
2011,07,29,06,45,14.10
2011,07,29,06,46,14.10
2011,07,29,06,47,14.10
2011,07,29,06,48,14.10
2011,07,29,06,49,14.20
2011,07,29,06,50,14.20
2011,07,29,06,51,14.20
2011,07,29,06,52,14.20
2011,07,29,06,53,14.20
2011,07,29,06,54,14.20
2011,07,29,06,55,14.20
2011,07,29,06,56,14.20
2011,07,29,06,57,14.20
2011,07,29,06,58,14.20
2011,07,29,06,59,14.20
2011,07,29,07,00,14.20
2011,07,29,07,01,14.30
2011,07,29,07,02,14.30
2011,07,29,07,03,14.30
2011,07,29,07,04,14.30
2011,07,29,07,05,14.30
2011,07,29,07,06,14.30
2011,07,29,07,07,14.30
2011,07,29,07,08,14.30
2011,07,29,07,09,14.30
2011,07,29,07,10,14.30
2011,07,29,07,11,14.30
2011,07,29,07,12,14.40
2011,07,29,07,13,14.40
2011,07,29,07,14,14.40
2011,07,29,07,15,14.40
2011,07,29,07,16,14.40
2011,07,29,07,17,14.40
2011,07,29,07,18,14.40
2011,07,29,07,19,14.40
2011,07,29,07,20,14.40
2011,07,29,07,21,14.40
2011,07,29,07,22,14.50
2011,07,29,07,23,14.50
2011,07,29,07,24,14.50
2011,07,29,07,25,14.50
2011,07,29,07,26,14.50
2011,07,29,07,27,14.60
2011,07,29,07,28,14.60
2011,07,29,07,29,14.60
2011,07,29,07,30,14.60
2011,07,29,07,31,14.60
2011,07,29,07,32,14.70
2011,07,29,07,33,14.70
2011,07,29,07,34,14.70
2011,07,29,07,35,14.80
2011,07,29,07,36,14.80
2011,07,29,07,37,14.80
2011,07,29,07,38,14.80
2011,07,29,07,39,14.80
2011,07,29,07,40,14.80
2011,07,29,07,41,14.90
2011,07,29,07,42,14.90
2011,07,29,07,43,14.90
2011,07,29,07,44,14.90
2011,07,29,07,45,14.90
2011,07,29,07,46,15.00
2011,07,29,07,47,15.10
2011,07,29,07,48,15.10
2011,07,29,07,49,15.20
2011,07,29,07,50,15.20
2011,07,29,07,51,15.30
2011,07,29,07,52,15.40
2011,07,29,07,53,15.50
2011,07,29,07,54,15.60
2011,07,29,07,55,15.70
2011,07,29,07,56,15.70
2011,07,29,07,57,15.80
2011,07,29,07,58,15.90
2011,07,29,07,59,15.90
2011,07,29,08,00,15.90
2011,07,29,08,01,16.00
2011,07,29,08,02,16.00
2011,07,29,08,03,16.10
2011,07,29,08,04,16.10
2011,07,29,08,05,16.10
2011,07,29,08,06,16.20
2011,07,29,08,07,16.20
2011,07,29,08,08,16.20
2011,07,29,08,09,16.30
2011,07,29,08,10,16.30
2011,07,29,08,11,16.40
2011,07,29,08,12,16.40
2011,07,29,08,13,16.50
2011,07,29,08,14,16.50
2011,07,29,08,15,16.60
2011,07,29,08,16,16.60
2011,07,29,08,17,16.60
2011,07,29,08,18,16.60
2011,07,29,08,19,16.60
2011,07,29,08,20,16.60
2011,07,29,08,21,16.70
2011,07,29,08,22,16.70
2011,07,29,08,23,16.70
2011,07,29,08,24,16.80
2011,07,29,08,25,16.80
2011,07,29,08,26,16.90
2011,07,29,08,27,17.00
2011,07,29,08,28,17.00
2011,07,29,08,29,17.00
2011,07,29,08,30,17.10
2011,07,29,08,31,17.10
2011,07,29,08,32,17.10
2011,07,29,08,33,17.10
2011,07,29,08,34,17.10
2011,07,29,08,35,17.10
2011,07,29,08,36,17.20
2011,07,29,08,37,17.20
2011,07,29,08,38,17.20
2011,07,29,08,39,17.20
2011,07,29,08,40,17.20
2011,07,29,08,41,17.20
2011,07,29,08,42,17.20
2011,07,29,08,43,17.30
2011,07,29,08,44,17.30
2011,07,29,08,45,17.30
2011,07,29,08,46,17.30
2011,07,29,08,47,17.30
2011,07,29,08,48,17.40
2011,07,29,08,49,17.50
2011,07,29,08,50,17.50
2011,07,29,08,51,17.60
2011,07,29,08,52,17.60
2011,07,29,08,53,17.70
2011,07,29,08,54,17.70
2011,07,29,08,55,17.70
2011,07,29,08,56,17.80
2011,07,29,08,57,17.90
2011,07,29,08,58,17.90
2011,07,29,08,59,18.00
2011,07,29,09,00,18.10
2011,07,29,09,01,18.20
2011,07,29,09,02,18.30
2011,07,29,09,03,18.40
2011,07,29,09,04,18.60
2011,07,29,09,05,18.70
2011,07,29,09,06,18.80
2011,07,29,09,07,18.80
2011,07,29,09,08,18.90
2011,07,29,09,09,18.90
2011,07,29,09,10,18.90
2011,07,29,09,11,18.90
2011,07,29,09,12,18.90
2011,07,29,09,13,18.90
2011,07,29,09,14,18.90
2011,07,29,09,15,18.90
2011,07,29,09,16,19.00
2011,07,29,09,17,19.00
2011,07,29,09,18,18.90
2011,07,29,09,19,18.90
2011,07,29,09,20,18.90
2011,07,29,09,21,19.00
2011,07,29,09,22,19.00
2011,07,29,09,23,19.10
2011,07,29,09,24,19.00
2011,07,29,09,25,19.00
2011,07,29,09,26,19.10
2011,07,29,09,27,19.00
2011,07,29,09,28,19.00
2011,07,29,09,29,18.90
2011,07,29,09,30,18.90
2011,07,29,09,31,18.90
2011,07,29,09,32,18.80
2011,07,29,09,33,18.70
2011,07,29,09,34,18.70
2011,07,29,09,35,18.70
2011,07,29,09,36,18.80
2011,07,29,09,37,18.80
2011,07,29,09,38,18.80
2011,07,29,09,39,18.80
2011,07,29,09,40,18.80
2011,07,29,09,41,18.80
2011,07,29,09,42,18.90
2011,07,29,09,43,18.90
2011,07,29,09,44,19.00
2011,07,29,09,45,19.00
2011,07,29,09,46,19.00
2011,07,29,09,47,19.00
2011,07,29,09,48,19.00
2011,07,29,09,49,19.10
2011,07,29,09,50,19.10
2011,07,29,09,51,19.20
2011,07,29,09,52,19.20
2011,07,29,09,53,19.30
2011,07,29,09,54,19.30
2011,07,29,09,55,19.40
2011,07,29,09,56,19.40
2011,07,29,09,57,19.40
2011,07,29,09,58,19.40
2011,07,29,09,59,19.50
2011,07,29,10,00,19.50
2011,07,29,10,01,19.60
2011,07,29,10,02,19.60
2011,07,29,10,03,19.60
2011,07,29,10,04,19.60
2011,07,29,10,05,19.50
2011,07,29,10,06,19.50
2011,07,29,10,07,19.60
2011,07,29,10,08,19.60
2011,07,29,10,09,19.60
2011,07,29,10,10,19.60
2011,07,29,10,11,19.60
2011,07,29,10,12,19.60
2011,07,29,10,13,19.70
2011,07,29,10,14,19.70
2011,07,29,10,15,19.70
2011,07,29,10,16,19.70
2011,07,29,10,17,19.70
2011,07,29,10,18,19.70
2011,07,29,10,19,19.70
2011,07,29,10,20,19.80
2011,07,29,10,21,19.80
2011,07,29,10,22,19.90
2011,07,29,10,23,20.00
2011,07,29,10,24,20.10
2011,07,29,10,25,20.10
2011,07,29,10,26,20.20
2011,07,29,10,27,20.20
2011,07,29,10,28,20.20
2011,07,29,10,29,20.20
2011,07,29,10,30,20.30
2011,07,29,10,31,20.30
2011,07,29,10,32,20.40
2011,07,29,10,33,20.40
2011,07,29,10,34,20.40
2011,07,29,10,35,20.40
2011,07,29,10,36,20.40
2011,07,29,10,37,20.40
2011,07,29,10,38,20.50
2011,07,29,10,39,20.60
2011,07,29,10,40,20.60
2011,07,29,10,41,20.70
2011,07,29,10,42,20.70
2011,07,29,10,43,20.70
2011,07,29,10,44,20.80
2011,07,29,10,45,20.80
2011,07,29,10,46,20.80
2011,07,29,10,47,20.80
2011,07,29,10,48,20.70
2011,07,29,10,49,20.70
2011,07,29,10,50,20.60
2011,07,29,10,51,20.50
2011,07,29,10,52,20.50
2011,07,29,10,53,20.50
2011,07,29,10,54,20.50
2011,07,29,10,55,20.50
2011,07,29,10,56,20.50
2011,07,29,10,57,20.50
2011,07,29,10,58,20.30
2011,07,29,10,59,20.30
2011,07,29,11,00,20.30
2011,07,29,11,01,20.30
2011,07,29,11,02,20.30
2011,07,29,11,03,20.30
2011,07,29,11,04,20.30
2011,07,29,11,05,20.40
2011,07,29,11,06,20.40
2011,07,29,11,07,20.40
2011,07,29,11,08,20.40
2011,07,29,11,09,20.30
2011,07,29,11,10,20.30
2011,07,29,11,11,20.20
2011,07,29,11,12,20.20
2011,07,29,11,13,20.20
2011,07,29,11,14,20.20
2011,07,29,11,15,20.20
2011,07,29,11,16,20.20
2011,07,29,11,17,20.20
2011,07,29,11,18,20.20
2011,07,29,11,19,20.20
2011,07,29,11,20,20.10
2011,07,29,11,21,20.10
2011,07,29,11,22,20.20
2011,07,29,11,23,20.20
2011,07,29,11,24,20.30
2011,07,29,11,25,20.30
2011,07,29,11,26,20.40
2011,07,29,11,27,20.40
2011,07,29,11,28,20.40
2011,07,29,11,29,20.50
2011,07,29,11,30,20.50
2011,07,29,11,31,20.50
2011,07,29,11,32,20.50
2011,07,29,11,33,20.40
2011,07,29,11,34,20.50
2011,07,29,11,35,20.60
2011,07,29,11,36,20.60
2011,07,29,11,37,20.60
2011,07,29,11,38,20.60
2011,07,29,11,39,20.50
2011,07,29,11,40,20.50
2011,07,29,11,41,20.40
2011,07,29,11,42,20.40
2011,07,29,11,43,20.30
2011,07,29,11,44,20.40
2011,07,29,11,45,20.40
2011,07,29,11,46,20.40
2011,07,29,11,47,20.40
2011,07,29,11,48,20.50
2011,07,29,11,49,20.60
2011,07,29,11,50,20.60
2011,07,29,11,51,20.70
2011,07,29,11,52,20.70
2011,07,29,11,53,20.70
2011,07,29,11,54,20.70
2011,07,29,11,55,20.70
2011,07,29,11,56,20.70
2011,07,29,11,57,20.80
2011,07,29,11,58,20.90
2011,07,29,11,59,21.10
2011,07,29,12,00,21.10
2011,07,29,12,01,21.20
2011,07,29,12,02,21.20
2011,07,29,12,03,21.20
2011,07,29,12,04,21.20
2011,07,29,12,05,21.30
2011,07,29,12,06,21.30
2011,07,29,12,07,21.20
2011,07,29,12,08,21.20
2011,07,29,12,09,21.10
2011,07,29,12,10,21.00
2011,07,29,12,11,21.00
2011,07,29,12,12,20.90
2011,07,29,12,13,20.90
2011,07,29,12,14,20.80
2011,07,29,12,15,20.80
2011,07,29,12,16,20.80
2011,07,29,12,17,20.80
2011,07,29,12,18,20.90
2011,07,29,12,19,20.90
2011,07,29,12,20,20.90
2011,07,29,12,21,20.90
2011,07,29,12,22,20.80
2011,07,29,12,23,20.80
2011,07,29,12,24,20.70
2011,07,29,12,25,20.70
2011,07,29,12,26,20.70
2011,07,29,12,27,20.70
2011,07,29,12,28,20.70
2011,07,29,12,29,20.80
2011,07,29,12,30,20.80
2011,07,29,12,31,20.90
2011,07,29,12,32,21.00
2011,07,29,12,33,21.00
2011,07,29,12,34,20.90
2011,07,29,12,35,20.90
2011,07,29,12,36,20.80
2011,07,29,12,37,20.80
2011,07,29,12,38,20.90
2011,07,29,12,39,20.90
2011,07,29,12,40,20.90
2011,07,29,12,41,20.90
2011,07,29,12,42,21.00
2011,07,29,12,43,21.10
2011,07,29,12,44,21.20
2011,07,29,12,45,21.20
2011,07,29,12,46,21.20
2011,07,29,12,47,21.20
2011,07,29,12,48,21.20
2011,07,29,12,49,21.20
2011,07,29,12,50,21.20
2011,07,29,12,51,21.10
2011,07,29,12,52,21.00
2011,07,29,12,53,21.00
2011,07,29,12,54,21.00
2011,07,29,12,55,20.90
2011,07,29,12,56,21.00
2011,07,29,12,57,21.10
2011,07,29,12,58,21.10
2011,07,29,12,59,21.10
2011,07,29,13,00,21.20
2011,07,29,13,01,21.30
2011,07,29,13,02,21.30
2011,07,29,13,03,21.30
2011,07,29,13,04,21.30
2011,07,29,13,05,21.30
2011,07,29,13,06,21.30
2011,07,29,13,07,21.30
2011,07,29,13,08,21.30
2011,07,29,13,09,21.30
2011,07,29,13,10,21.30
2011,07,29,13,11,21.20
2011,07,29,13,12,21.10
2011,07,29,13,13,21.10
2011,07,29,13,14,21.10
2011,07,29,13,15,21.10
2011,07,29,13,16,21.10
2011,07,29,13,17,21.10
2011,07,29,13,18,21.10
2011,07,29,13,19,21.10
2011,07,29,13,20,21.00
2011,07,29,13,21,20.90
2011,07,29,13,22,20.90
2011,07,29,13,23,21.00
2011,07,29,13,24,21.10
2011,07,29,13,25,21.00
2011,07,29,13,26,21.00
2011,07,29,13,27,21.00
2011,07,29,13,28,21.10
2011,07,29,13,29,21.10
2011,07,29,13,30,21.10
2011,07,29,13,31,21.00
2011,07,29,13,32,20.90
2011,07,29,13,33,20.90
2011,07,29,13,34,20.90
2011,07,29,13,35,20.90
2011,07,29,13,36,20.80
2011,07,29,13,37,20.80
2011,07,29,13,38,20.80
2011,07,29,13,39,20.80
2011,07,29,13,40,20.90
2011,07,29,13,41,20.80
2011,07,29,13,42,20.80
2011,07,29,13,43,20.80
2011,07,29,13,44,20.80
2011,07,29,13,45,20.80
2011,07,29,13,46,20.80
2011,07,29,13,47,20.80
2011,07,29,13,48,20.80
2011,07,29,13,49,20.90
2011,07,29,13,50,20.90
2011,07,29,13,51,20.80
2011,07,29,13,52,20.70
2011,07,29,13,53,20.80
2011,07,29,13,54,20.80
2011,07,29,13,55,20.80
2011,07,29,13,56,20.80
2011,07,29,13,57,20.80
2011,07,29,13,58,20.90
2011,07,29,13,59,20.90
2011,07,29,14,00,20.90
2011,07,29,14,01,20.90
2011,07,29,14,02,21.00
2011,07,29,14,03,21.00
2011,07,29,14,04,20.90
2011,07,29,14,05,20.80
2011,07,29,14,06,20.80
2011,07,29,14,07,20.80
2011,07,29,14,08,20.80
2011,07,29,14,09,20.90
2011,07,29,14,10,20.90
2011,07,29,14,11,21.00
2011,07,29,14,12,21.00
2011,07,29,14,13,20.90
2011,07,29,14,14,20.80
2011,07,29,14,15,20.80
2011,07,29,14,16,20.90
2011,07,29,14,17,20.90
2011,07,29,14,18,20.90
2011,07,29,14,19,20.90
2011,07,29,14,20,20.80
2011,07,29,14,21,20.90
2011,07,29,14,22,21.00
2011,07,29,14,23,21.00
2011,07,29,14,24,21.10
2011,07,29,14,25,21.20
2011,07,29,14,26,21.10
2011,07,29,14,27,21.10
2011,07,29,14,28,21.00
2011,07,29,14,29,21.00
2011,07,29,14,30,20.90
2011,07,29,14,31,20.90
2011,07,29,14,32,20.90
2011,07,29,14,33,20.90
2011,07,29,14,34,20.90
2011,07,29,14,35,20.90
2011,07,29,14,36,20.90
2011,07,29,14,37,20.90
2011,07,29,14,38,20.80
2011,07,29,14,39,20.80
2011,07,29,14,40,20.90
2011,07,29,14,41,20.90
2011,07,29,14,42,20.90
2011,07,29,14,43,20.90
2011,07,29,14,44,21.00
2011,07,29,14,45,21.00
2011,07,29,14,46,21.00
2011,07,29,14,47,21.00
2011,07,29,14,48,21.10
2011,07,29,14,49,21.10
2011,07,29,14,50,21.20
2011,07,29,14,51,21.20
2011,07,29,14,52,21.20
2011,07,29,14,53,21.20
2011,07,29,14,54,21.20
2011,07,29,14,55,21.10
2011,07,29,14,56,21.10
2011,07,29,14,57,21.10
2011,07,29,14,58,21.10
2011,07,29,14,59,21.00
2011,07,29,15,00,21.00
2011,07,29,15,01,20.90
2011,07,29,15,02,21.00
2011,07,29,15,03,21.00
2011,07,29,15,04,21.10
2011,07,29,15,05,21.30
2011,07,29,15,06,21.30
2011,07,29,15,07,21.40
2011,07,29,15,08,21.40
2011,07,29,15,09,21.40
2011,07,29,15,10,21.50
2011,07,29,15,11,21.50
2011,07,29,15,12,21.60
2011,07,29,15,13,21.60
2011,07,29,15,14,21.60
2011,07,29,15,15,21.60
2011,07,29,15,16,21.60
2011,07,29,15,17,21.60
2011,07,29,15,18,21.60
2011,07,29,15,19,21.60
2011,07,29,15,20,21.60
2011,07,29,15,21,21.60
2011,07,29,15,22,21.60
2011,07,29,15,23,21.60
2011,07,29,15,24,21.70
2011,07,29,15,25,21.70
2011,07,29,15,26,21.60
2011,07,29,15,27,21.70
2011,07,29,15,28,21.70
2011,07,29,15,29,21.80
2011,07,29,15,30,21.80
2011,07,29,15,31,21.80
2011,07,29,15,32,21.90
2011,07,29,15,33,22.00
2011,07,29,15,34,22.10
2011,07,29,15,35,22.10
2011,07,29,15,36,22.10
2011,07,29,15,37,22.10
2011,07,29,15,38,22.10
2011,07,29,15,39,22.10
2011,07,29,15,40,22.10
2011,07,29,15,41,22.10
2011,07,29,15,42,22.10
2011,07,29,15,43,22.10
2011,07,29,15,44,22.20
2011,07,29,15,45,22.30
2011,07,29,15,46,22.30
2011,07,29,15,47,22.30
2011,07,29,15,48,22.40
2011,07,29,15,49,22.30
2011,07,29,15,50,22.30
2011,07,29,15,51,22.30
2011,07,29,15,52,22.30
2011,07,29,15,53,22.30
2011,07,29,15,54,22.30
2011,07,29,15,55,22.30
2011,07,29,15,56,22.40
2011,07,29,15,57,22.50
2011,07,29,15,58,22.50
2011,07,29,15,59,22.40
2011,07,29,16,00,22.40
2011,07,29,16,01,22.30
2011,07,29,16,02,22.30
2011,07,29,16,03,22.30
2011,07,29,16,04,22.20
2011,07,29,16,05,22.20
2011,07,29,16,06,22.20
2011,07,29,16,07,22.20
2011,07,29,16,08,22.20
2011,07,29,16,09,22.20
2011,07,29,16,10,22.20
2011,07,29,16,11,22.20
2011,07,29,16,12,22.20
2011,07,29,16,13,22.20
2011,07,29,16,14,22.20
2011,07,29,16,15,22.10
2011,07,29,16,16,22.20
2011,07,29,16,17,22.20
2011,07,29,16,18,22.30
2011,07,29,16,19,22.30
2011,07,29,16,20,22.40
2011,07,29,16,21,22.50
2011,07,29,16,22,22.50
2011,07,29,16,23,22.60
2011,07,29,16,24,22.60
2011,07,29,16,25,22.60
2011,07,29,16,26,22.60
2011,07,29,16,27,22.70
2011,07,29,16,28,22.70
2011,07,29,16,29,22.70
2011,07,29,16,30,22.70
2011,07,29,16,31,22.70
2011,07,29,16,32,22.60
2011,07,29,16,33,22.60
2011,07,29,16,34,22.50
2011,07,29,16,35,22.50
2011,07,29,16,36,22.40
2011,07,29,16,37,22.40
2011,07,29,16,38,22.40
2011,07,29,16,39,22.40
2011,07,29,16,40,22.40
2011,07,29,16,41,22.40
2011,07,29,16,42,22.30
2011,07,29,16,43,22.10
2011,07,29,16,44,22.00
2011,07,29,16,45,22.00
2011,07,29,16,46,22.10
2011,07,29,16,47,22.10
2011,07,29,16,48,22.10
2011,07,29,16,49,22.10
2011,07,29,16,50,21.90
2011,07,29,16,51,21.90
2011,07,29,16,52,21.90
2011,07,29,16,53,22.00
2011,07,29,16,54,22.00
2011,07,29,16,55,21.90
2011,07,29,16,56,21.80
2011,07,29,16,57,21.70
2011,07,29,16,58,21.70
2011,07,29,16,59,21.80
2011,07,29,17,00,21.90
2011,07,29,17,01,21.90
2011,07,29,17,02,21.90
2011,07,29,17,03,21.90
2011,07,29,17,04,22.00
2011,07,29,17,05,21.90
2011,07,29,17,06,21.90
2011,07,29,17,07,21.80
2011,07,29,17,08,21.80
2011,07,29,17,09,21.70
2011,07,29,17,10,21.70
2011,07,29,17,11,21.70
2011,07,29,17,12,21.70
2011,07,29,17,13,21.70
2011,07,29,17,14,21.70
2011,07,29,17,15,21.80
2011,07,29,17,16,21.90
2011,07,29,17,17,21.90
2011,07,29,17,18,21.90
2011,07,29,17,19,22.00